| time (UTC) | temp C | wind direction | speed KPH | gust KPH | rain 1hr cm | rain 24hr cm | rain mn cm | humidity % | barometer mb |
| 20260504020127 | 8 | 314 | 0.0 | 4.8 | 0.00 | 0.08 | 0.00 | 64 | 1019.0 |
| 20260504014601 | 8 | 306 | 1.6 | 4.8 | 0.00 | 0.08 | 0.00 | 64 | 1019.0 |
| 20260504013058 | 8 | 214 | 0.0 | 3.2 | 0.00 | 0.08 | 0.00 | 62 | 1018.9 |
| 20260504011547 | 8 | 86 | 0.0 | 0.0 | 0.00 | 0.08 | 0.00 | 62 | 1018.7 |
| 20260504010046 | 8 | 86 | 0.0 | 4.8 | 0.00 | 0.08 | 0.00 | 62 | 1018.6 |
| 20260504004615 | 8 | 86 | 0.0 | 1.6 | 0.00 | 0.08 | 0.00 | 63 | 1018.6 |
| 20260504003048 | 8 | 85 | 1.6 | 4.8 | 0.00 | 0.08 | 0.00 | 62 | 1018.5 |
| 20260504001603 | 9 | 221 | 1.6 | 8.0 | 0.00 | 0.08 | 0.00 | 60 | 1018.6 |
| 20260504000041 | 9 | 59 | 0.0 | 0.0 | 0.00 | 0.08 | 0.00 | 59 | 1018.5 |
| 20260503234536 | 9 | 59 | 0.0 | 0.0 | 0.00 | 0.08 | 0.00 | 58 | 1018.5 |
| 20260503233039 | 10 | 59 | 0.0 | 0.0 | 0.00 | 0.08 | 0.00 | 57 | 1018.6 |
| 20260503231534 | 10 | 59 | 1.6 | 4.8 | 0.00 | 0.08 | 0.00 | 56 | 1018.6 |
| 20260503230031 | 10 | 63 | 0.0 | 3.2 | 0.00 | 0.08 | 0.00 | 56 | 1018.7 |
| 20260503224529 | 10 | 63 | 0.0 | 4.8 | 0.00 | 0.08 | 0.00 | 54 | 1018.6 |
| 20260503223024 | 11 | 53 | 0.0 | 8.0 | 0.00 | 0.08 | 0.00 | 53 | 1018.6 |
| 20260503221521 | 11 | 355 | 0.0 | 3.2 | 0.00 | 0.08 | 0.00 | 53 | 1018.6 |
| 20260503220017 | 12 | 355 | 1.6 | 4.8 | 0.00 | 0.08 | 0.00 | 50 | 1018.5 |
| 20260503214518 | 12 | 355 | 0.0 | 6.4 | 0.00 | 0.08 | 0.00 | 48 | 1018.5 |
| 20260503213012 | 12 | 345 | 0.0 | 6.4 | 0.00 | 0.08 | 0.00 | 45 | 1018.4 |
| 20260503211508 | 13 | 308 | 3.2 | 6.4 | 0.00 | 0.08 | 0.00 | 45 | 1018.4 |
| 20260503210008 | 13 | 103 | 4.8 | 9.7 | 0.00 | 0.08 | 0.00 | 43 | 1018.3 |
| 20260503204506 | 13 | 186 | 0.0 | 6.4 | 0.00 | 0.08 | 0.08 | 44 | 1018.3 |
| 20260503203013 | 13 | 142 | 6.4 | 14.5 | 0.00 | 0.08 | 0.08 | 41 | 1018.3 |
| 20260503201504 | 13 | 189 | 0.0 | 12.9 | 0.00 | 0.08 | 0.08 | 42 | 1018.3 |
| 20260503200005 | 13 | 130 | 3.2 | 11.3 | 0.00 | 0.08 | 0.08 | 43 | 1018.3 |
| 20260503194504 | 13 | 67 | 3.2 | 11.3 | 0.00 | 0.08 | 0.08 | 43 | 1018.4 |
| 20260503193003 | 13 | 78 | 1.6 | 8.0 | 0.00 | 0.08 | 0.08 | 42 | 1018.3 |
| 20260503191502 | 13 | 121 | 1.6 | 6.4 | 0.00 | 0.08 | 0.08 | 40 | 1018.2 |
| 20260503190004 | 14 | 189 | 0.0 | 6.4 | 0.00 | 0.08 | 0.08 | 40 | 1018.1 |
| 20260503184502 | 14 | 123 | 3.2 | 16.1 | 0.00 | 0.08 | 0.08 | 38 | 1017.8 |
| 20260503183002 | 15 | 76 | 6.4 | 16.1 | 0.00 | 0.08 | 0.08 | 37 | 1017.5 |
| 20260503181502 | 15 | 71 | 4.8 | 19.3 | 0.00 | 0.08 | 0.08 | 37 | 1017.3 |
| 20260503180100 | 15 | 105 | 4.8 | 14.5 | 0.00 | 0.08 | 0.08 | 36 | 1017.1 |
| 20260503180000 | 15 | 111 | 6.4 | 14.5 | 0.00 | 0.08 | 0.08 | 36 | 1017.2 |
| 20260503174603 | 16 | 105 | 1.6 | 9.7 | 0.00 | 0.08 | 0.08 | 37 | 1017.1 |
| 20260503173105 | 16 | 87 | 0.0 | 3.2 | 0.00 | 0.08 | 0.08 | 38 | 1017.0 |
| 20260503171604 | 17 | 5 | 0.0 | 3.2 | 0.00 | 0.08 | 0.08 | 34 | 1016.8 |
| 20260503081510 | 13 | 14 | 8.0 | 22.5 | 0.03 | 0.10 | 0.08 | 44 | 1018.9 |
| 20260503071548 | 11 | 52 | 3.2 | 14.5 | 0.00 | 0.08 | 0.05 | 64 | 1018.8 |
| 20260503060106 | 8 | 11 | 0.0 | 6.4 | 0.03 | 0.08 | 0.05 | 81 | 1018.6 |
| 20260503054552 | 8 | 355 | 0.0 | 0.0 | 0.05 | 0.08 | 0.05 | 78 | 1018.5 |
| 20260503053037 | 8 | 355 | 0.0 | 4.8 | 0.05 | 0.08 | 0.05 | 77 | 1018.4 |
| 20260503051525 | 8 | 13 | 1.6 | 9.7 | 0.05 | 0.08 | 0.05 | 74 | 1018.4 |
| 20260503050025 | 9 | 57 | 14.5 | 27.4 | 0.05 | 0.05 | 0.05 | 1018.3 | |
| 20260503044523 | 9 | 84 | 6.4 | 11.3 | 0.00 | 0.03 | 0.00 | 73 | 1017.9 |
| 20260503043025 | 9 | 76 | 0.0 | 6.4 | 0.00 | 0.03 | 0.00 | 74 | 1017.8 |
| 20260503041520 | 9 | 76 | 3.2 | 11.3 | 0.00 | 0.03 | 0.00 | 73 | 1017.6 |
| 20260503040031 | 8 | 80 | 6.4 | 12.9 | 0.00 | 0.03 | 0.00 | 78 | 1017.5 |
| 20260503034518 | 8 | 335 | 3.2 | 9.7 | 0.00 | 0.03 | 0.00 | 78 | 1017.4 |
| 20260503033014 | 8 | 5 | 3.2 | 9.7 | 0.00 | 0.03 | 0.00 | 78 | 1017.2 |
| 20260503031513 | 8 | 59 | 1.6 | 8.0 | 0.00 | 0.03 | 0.00 | 80 | 1017.1 |
| 20260503030013 | 8 | 5 | 1.6 | 4.8 | 0.00 | 0.03 | 0.00 | 81 | 1017.1 |
| 20260503024513 | 8 | 360 | 0.0 | 14.5 | 0.00 | 0.03 | 0.00 | 82 | 1017.2 |
| 20260503023012 | 8 | 82 | 3.2 | 9.7 | 0.00 | 0.03 | 0.00 | 83 | 1017.5 |
| 20260503021510 | 8 | 59 | 3.2 | 9.7 | 0.00 | 0.03 | 0.00 | 83 | 1017.5 |